Location: Glomel
(48.2230°N, 3.3970°W)
Time: 05:45:59
(UTC+00:00)

Daily predictions for brighter satellites

Satellite Brightness Start Highest point End
(mag) Time Altitude Azimuth Time Altitude Azimuth Time Altitude Azimuth
USA 215 4.5 03:44:22 10° NE 03:48:02 35° NE 03:48:02 35° NE
Cosmos 2360 Rocket 4.1 04:05:03 23° NE 04:05:03 23° NE 04:07:06 10° NNE
Cosmos 2322 Rocket 4.4 04:06:14 17° NNE 04:06:14 17° NNE 04:07:29 10° NNE
Cosmos 2233 Rocket 4.5 04:36:26 52° NNE 04:36:26 52° NNE 04:41:02 10° NNE
BREEZE-M DEB (TANK) 3.7 04:48:26 77° E 04:48:26 77° E 04:59:14 10° ENE
Cosmos 1898 Rocket 4.1 04:48:06 53° ENE 04:48:06 53° ENE 04:53:05 10° SE
Cosmos 2278 Rocket 2.9 04:56:36 36° N 04:58:31 51° NE 05:04:01 10° SE
COSMO-SKYMED 1 3.5 04:56:08 10° SSE 04:59:33 46° ESE 04:59:33 46° ESE
METEOR-M 4.1 04:56:58 10° NNE 05:02:21 80° ESE 05:02:50 72° SSE
Cosmos 2322 3.6 05:09:01 76° NNW 05:09:01 76° NNW 05:14:33 10° NNE
Lacrosse 5 rocket 2.5 05:11:52 36° ENE 05:11:52 36° ENE 05:14:40 10° E
Cosmos 2237 Rocket 3.9 05:06:13 10° SSE 05:11:07 31° ESE 05:16:04 10° NE
Cosmos 1867 4.4 05:15:21 38° N 05:15:21 38° N 05:19:23 10° NNE
Cosmos 2333 Rocket 2.0 05:14:07 76° WSW 05:14:30 81° WNW 05:20:13 10° NNE
Cosmos 2219 Rocket 2.0 05:15:11 67° SW 05:15:58 87° WNW 05:21:36 10° NNE
Cosmos 468 Rocket 4.2 05:14:26 28° S 05:17:14 71° ESE 05:22:31 10° NNE
Cosmos 1937 Rocket 3.6 05:20:43 37° NNW 05:22:48 75° ENE 05:28:03 10° SSE
BREEZE-M DEB (TANK) 3.7 05:20:10 40° WNW 05:23:48 76° SSW 05:27:52 10° ESE
Okean 1-7 Rocket 3.8 05:23:31 31° N 05:25:37 71° E 05:30:07 10° SSE
GEOS 3 Rocket 3.6 05:24:40 10° SE 05:30:03 80° SW 05:31:33 50° NW
USA 215 3.9 05:27:07 10° ENE 05:33:09 41° N 05:35:23 32° NW
COSMOS 2428 2.6 05:32:07 37° SW 05:34:27 76° WNW 05:40:11 10° NNE
Cosmos 2333 4.4 05:36:44 47° NW 05:36:45 47° NW 05:42:11 10° NNE
IRIDIUM 104 4.2 05:33:24 10° SSW 05:38:33 61° W 05:43:44 10° N
YAOGAN 6 4.4 05:35:24 10° NNE 05:38:47 33° E 05:42:10 10° SSE
SL-16 R/B 4.0 05:42:32 16° NNW 05:42:32 16° NNW 05:44:52 10° N
Cosmos 1980 4.3 05:38:13 10° S 05:43:44 58° ESE 05:49:17 10° NE
Cosmos 1455 Rocket 2.8 05:39:52 10° SSW 05:44:13 77° W 05:48:35 10° N
Cosmos 2360 Rocket 3.3 05:46:50 25° NNW 05:46:50 25° NNW 05:50:44 10° N
Cosmos 2322 Rocket 3.9 05:48:04 17° NNW 05:48:04 17° NNW 05:50:41 10° N
IRIDIUM 114 4.4 05:42:39 10° SSW 05:47:43 51° W 05:52:49 10° N
SKYMED 2 3.7 05:44:09 10° S 05:48:08 50° WSW 05:48:08 50° WSW
Cosmos 2034 Rocket 4.2 05:42:12 10° S 05:48:34 78° E 05:54:57 10° NNE
Cosmos 44 Rocket 3.3 05:47:02 40° NW 05:48:54 74° SW 05:54:06 10° SSE
ALOS 4.1 05:46:19 10° N 05:47:33 17° NNW 05:47:33 17° NNW
FENGYUN 3A 4.4 05:48:50 10° N 05:52:53 32° NW 05:52:53 32° NW
Nadezhda 4 Rocket 3.9 05:48:14 10° N 05:54:24 86° W 06:00:31 10° S
ATLAS CENTAUR R/B 4.3 05:52:27 10° SSE 05:54:37 15° ESE 05:56:47 10° ENE
ADEOS 3.8 05:50:30 10° N 05:55:29 46° WNW 05:58:33 22° SW
Meteor PRIRODA 3.4 05:54:01 10° N 05:57:39 76° WNW 06:01:16 10° SSW
deb Chang Zheng 4 3.4 05:53:32 10° N 05:57:46 65° WNW 06:01:57 10° SSW
Cosmos 540 Rocket 3.5 05:52:50 10° SSW 05:57:56 78° ESE 06:03:06 10° NNE
ERS-2 2.6 05:55:09 10° S 05:58:04 42° SW 05:58:04 42° SW
Cosmos 1953 2.2 05:54:49 10° S 05:58:48 87° W 06:02:48 10° N
MOS 1 Rocket 3.3 05:53:56 10° S 05:58:54 62° W 06:03:06 13° NNW
BREEZE-M DEB (TANK) 4.4 05:56:25 12° SSW 05:59:06 35° SE 06:06:41 10° ENE
Cosmos 990 Rocket 4.5 05:59:30 35° W 05:59:43 35° WSW 06:04:20 10° SSW
Okean O Rocket 4.1 05:58:30 10° NE 06:02:02 24° E 06:05:32 10° SSE
Meteor 2-10 4.3 05:59:16 10° SSW 06:04:42 49° WNW 06:10:01 10° N
Cosmos 1908 3.4 06:00:58 10° S 06:04:45 72° E 06:08:34 10° NNE
Cosmos 1726 4.2 06:10:28 15° NNW 06:10:28 15° NNW 06:11:15 10° N
Meteor 2-13 Rocket 4.4 06:03:10 10° NNW 06:09:17 67° W 06:15:22 10° S
Cosmos 1689 Rocket 2.7 06:09:32 10° S 06:11:43 37° SW 06:11:43 37° SW
SMAP 4.5 06:08:02 10° NNE 06:12:28 41° E 06:16:52 10° S
Meteor 1-16 Rocket 4.3 06:07:26 10° S 06:13:20 90° W 06:19:19 10° NNE
SL-8 R/B 4.3 06:12:38 28° W 06:14:38 42° SSW 06:19:09 10° SE
Cosmos 1602 Rocket 3.5 06:10:11 10° N 06:14:40 89° E 06:19:08 10° S
PSLV R/B 4.2 06:11:03 10° S 06:15:00 46° W 06:17:46 19° NNW
Cosmos 1461 3.2 06:12:00 18° SW 06:15:27 62° NW 06:20:12 10° NNE
CZ-2C R/B 4.1 06:20:17 10° S 06:20:49 10° S 06:21:20 10° SSE
Cosmos 1763 Rocket 4.0 06:20:54 11° SW 06:25:26 38° WNW 06:30:20 10° N
Cosmos 2084 4.4 06:26:22 24° WNW 06:27:46 29° NNW 06:31:37 10° NNE
Cosmos 841 Rocket 3.4 06:26:14 10° SW 06:31:19 61° WNW 06:36:26 10° NNE
Cosmos 2026 Rocket 4.1 06:25:05 10° N 06:31:28 87° E 06:37:51 10° S
Cosmos 1825 Rocket 4.3 06:27:44 10° N 06:32:10 57° ENE 06:36:33 10° SSE
Cosmos 921 Rocket 3.8 06:30:20 19° WSW 06:32:17 27° WNW 06:35:55 10° N
Meteor 1-11 4.2 06:27:34 10° N 06:33:12 86° ENE 06:38:46 10° SSE
CENTAUR R/B 4.4 06:28:46 10° S 06:33:56 33° ESE 06:39:52 10° NE
Cosmos 1340 2.9 06:30:49 10° NNW 06:34:24 47° W 06:38:00 10° S
COSMO-SKYMED 1 4.0 06:33:52 10° SW 06:36:47 18° W 06:36:47 18° W
Cosmos 2369 Rocket 3.6 06:32:04 10° NNW 06:37:12 34° NE 06:42:16 10° ESE
CZ-4B R/B 3.6 06:34:20 10° N 06:37:21 25° WNW 06:40:23 10° WSW
Cosmos 1703 3.6 06:33:58 10° NNW 06:37:40 42° W 06:41:21 10° SSW
Cosmos 2098 Rocket 3.9 06:33:45 10° N 06:40:18 82° E 06:45:29 10° S
NOSS 0 Rocket 4.1 06:34:44 10° SW 06:40:46 53° NW 06:46:50 10° NNE
Cosmos 2298 Rocket 4.0 06:36:06 10° NNW 06:41:28 81° WSW 06:46:48 10° SSE
SL-16 R/B 2.9 06:36:46 10° S 06:42:17 58° ESE 06:47:51 10° NE
Cosmos 2278 Rocket 3.0 06:38:29 15° NW 06:42:20 30° WSW 06:47:11 10° SSW
CZ-4B R/B 3.8 06:37:04 10° NNE 06:42:43 63° ESE 06:48:16 10° S
Cosmos 1346 Rocket 2.8 06:40:09 10° N 06:44:09 88° ENE 06:48:08 10° S
Cosmos 1570 Rocket 4.0 06:39:25 10° SW 06:44:34 58° WNW 06:49:46 10° NNE
H-2A R/B 3.7 06:46:38 10° NNW 06:49:41 25° WNW 06:52:45 10° WSW
Cosmos 1943 Rocket 2.6 06:44:24 10° NNW 06:50:03 64° ENE 06:55:41 10° SE
PAYLOAD B 4.2 06:44:29 10° NNE 06:50:06 86° WNW 06:55:42 10° SSW
Lacrosse 5 rocket 1.8 06:47:30 16° WNW 06:50:07 38° SW 06:53:34 10° SSE
Lacrosse 4 Rocket 1.7 06:48:47 10° SSW 06:53:00 77° ESE 06:57:22 10° NE
Cosmos 1953 Rocket 4.1 06:49:12 10° N 06:53:30 62° ENE 06:57:47 10° SSE
CZ-2C R/B 2.6 06:48:42 10° S 06:53:52 63° W 06:59:10 10° NNW
Cosmos 1939 Rocket 3.9 06:50:34 10° NNE 06:54:25 49° E 06:58:12 10° S
Cosmos 2237 Rocket 2.4 06:49:29 10° SW 06:54:58 49° NW 07:00:31 10° NNE
NOAA 12 4.1 06:49:49 10° NNE 06:55:07 85° WNW 07:00:26 10° SSW
Cosmos 2333 Rocket 3.5 06:56:11 12° W 06:59:42 19° NW 07:03:45 10° N
Cosmos 2219 Rocket 3.5 06:56:57 11° W 07:00:46 20° NW 07:04:51 10° N
FengYun 1-2 T 4.5 06:57:38 10° NNE 07:03:20 81° ESE 07:09:00 10° SSW
Cosmos 1125 Rocket 3.5 06:59:14 10° NNW 07:04:33 76° WSW 07:09:51 10° SSE
Cosmos 2208 Rocket 4.3 06:59:18 10° SW 07:04:36 50° WNW 07:09:53 10° NNE
Cosmos 2084 Rocket 3.5 07:02:01 10° NW 07:06:23 77° SW 07:10:53 10° SE
Cosmos 1400 Rocket 3.6 07:03:34 10° SW 07:07:15 31° WNW 07:10:58 10° N
CZ-4 R/B 3.9 07:04:20 10° NE 07:07:37 26° E 07:10:52 10° SSE
Envisat 3.5 07:03:33 10° N 07:08:09 36° WNW 07:12:45 10° SW
Cosmos 1606 Rocket 3.5 07:04:03 10° S 07:08:21 85° W 07:12:42 10° N
Cosmos 1814 Rocket 4.3 07:03:59 10° SW 07:08:50 41° WNW 07:13:42 10° NNE
FALCON 9 DEB 3.1 07:05:33 10° WSW 07:08:57 69° NNW 07:12:22 10° ENE
YAOGAN 6 3.9 07:09:14 10° NNW 07:12:05 21° WNW 07:14:55 10° WSW
NOAA 6 4.4 07:08:30 10° N 07:13:25 44° WNW 07:18:19 10° SW
SL-4 R/B 2.9 07:10:03 10° SW 07:13:49 50° SSE 07:17:54 10° ENE
Cosmos 2297 3.9 07:08:43 10° NW 07:14:22 60° WSW 07:20:00 10° S
USA 215 3.8 07:09:12 10° E 07:15:29 52° NNE 07:21:46 10° NW
CORIOLIS 4.1 07:10:30 10° N 07:15:50 72° WNW 07:21:10 10° SSW
BREEZE M DEB (TANK) 3.1 07:14:43 10° SW 07:17:08 52° SSE 07:22:47 10° ENE
Cosmos 2228 3.0 07:13:36 10° SSW 07:17:48 60° WNW 07:22:01 10° N
Cosmos 1455 4.2 07:14:58 10° SSE 07:18:19 32° E 07:21:41 10° NNE
COSMOS 2428 4.1 07:15:49 10° W 07:19:45 19° NW 07:23:40 10° N
